Regional Weather Roundup
Issued by NWS

Current Version | Previous Version | Text Only | Print | Product List | Glossary On
Versions: 1 2 3 4 5 6 7 8 9 10 11 12 13 14 15 16 17 18 19 20 21 22 23 24 25 26 27 28 29 30 31 32 33 34 35 36 37 38 39 40 41 42 43 44 45 46 47 48 49 50
000
ASUS44 KOUN 230310
RWROK

WEATHER ROUNDUP FOR OKLAHOMA
NATIONAL WEATHER SERVICE NORMAN OK
900 PM CST MON DEC 22 2014

NOTE: "FAIR" INDICATES FEW OR NO CLOUDS BELOW 12,000 FEET WITH NO
      SIGNIFICANT WEATHER AND/OR OBSTRUCTIONS TO VISIBILITY.

OKZ001>007-009>012-014-015-017-230400-
NORTHWEST OKLAHOMA AND THE PANHANDLE

CITY           SKY/WX    TMP DP  RH WIND       PRES   REMARKS
GAGE           PTCLDY    36  30  79 W6        29.72R WCI  31
ENID/WOODRING  PTCLDY    41  36  81 W5        29.67R
$$

OKZ016-021>023-033>039-044-045-230400-
SOUTHWEST OKLAHOMA

CITY           SKY/WX    TMP DP  RH WIND       PRES   REMARKS
LAWTON/REGL    CLOUDY    50  36  58 N3        29.66F
LAWTON/FT SILL CLOUDY    49  36  60 N8        29.65F
FREDERICK      CLOUDY    48  38  68 NE6       29.68R
CLINTON        CLOUDY    46  33  60 NW12      29.70F
HOBART         CLOUDY    48  34  58 N10       29.69F
ALTUS AFB      CLOUDY    52  32  47 NW7       29.70R
$$

OKZ018>020-024>031-230400-
CENTRAL OKLAHOMA

CITY           SKY/WX    TMP DP  RH WIND       PRES   REMARKS
OKLAHOMA CITY  CLOUDY    47  35  63 N9        29.68R
OKC/WILEY POST CLOUDY    47  35  63 NW6       29.69R
OKC/TINKER AFB CLOUDY    45  35  68 N8        29.67R
STILLWATER     MOCLDY    39  35  86 SW7       29.68R WCI  34
GUTHRIE        CLOUDY    40  35  83 SW6       29.70R
$$

OKZ008-013-054>072-230400-
NORTHEAST OKLAHOMA

CITY           SKY/WX    TMP DP  RH WIND       PRES   REMARKS
TULSA          PTCLDY    39  38  96 NW8       29.66S WCI  33
TULSA/JONES    CLEAR     40  38  93 CALM      29.65F
PONCA CITY     CLEAR     43  34  70 W6        29.64F
BARTLESVILLE   CLEAR     40  37  89 SW5       29.65S
MUSKOGEE       CLEAR     44  39  82 NW7       29.66S
$$

OKZ032-040>043-046>053-073>077-230400-
SOUTH CENTRAL/SOUTHEAST OKLAHOMA

CITY           SKY/WX    TMP DP  RH WIND       PRES   REMARKS
ARDMORE/DWNTWN CLOUDY    48  39  71 CALM      29.68R
MCALESTER      PTCLDY    43  41  93 CALM      29.66S
$$



USA.gov is the U.S. government's official web portal to all federal, state and local government web resources and services.